Weather History for KLRF - June, 2014

Change the Weather History Date:

Wednesday, June 4, 2014

  Actual Average Record
Temperature  
Mean Temperature 80 °F -  
Max Temperature 91 °F 84 °F 98 °F (1977)
Min Temperature 71 °F 63 °F 54 °F (1967)
Cooling Degree Days 16    
Growing Degree Days 30 (Base 50)    
Moisture  
Dew Point 72 °F    
Average Humidity 74    
Maximum Humidity 97    
Minimum Humidity 55    
Precipitation  
Precipitation 0.00 in - - ()
Sea Level Pressure  
Sea Level Pressure 29.87 in    
Wind  
Wind Speed 6 mph (SSW)    
Max Wind Speed 16 mph    
Max Gust Speed 22 mph    
Visibility 10 miles    
Events      
Averages and records for this station are not official NWS values.
T = Trace of Precipitation, MM = Missing Value Source: NWS Daily Summary

Daily Weather History Graph

Daily Weather History Graph

Search for Another Location

Airport or City:

Trip Planner

Search our weather history database for the weather conditions in past years. The results will help you decide how hot, cold, wet, or windy it might be!

Date:

Astronomy

Jun. 04, 2014 Rise Set
Actual Time 5:55 AM CDT 8:18 PM CDT
Civil Twilight 5:25 AM CDT 8:48 PM CDT
Nautical Twilight 4:49 AM CDT 9:24 PM CDT
Astronomical Twilight 4:10 AM CDT 10:03 PM CDT
Moon 12:04 PM CDT (6/4) 12:27 AM CDT (6/4)
Length of Visible Light 15h 22m
Length of Day
14h 23m
Waxing Crescent, 39% of the Moon is Illuminated
Jun 4
Waxing Crescent
Jun 5
First Quarter
Jun 12
Full
Jun 19
Last Quarter
Jun 27
New

Hourly Weather History & Observations

Time (CDT) Temp. Heat Index Dew Point Humidity Pressure Visibility Wind Dir Wind Speed Gust Speed Precip Events Conditions
12:58 AM 77.0 °F - 71.8 °F 84% 29.89 in 10.0 mi South 4.6 mph - N/A   Clear
1:58 AM 76.3 °F - 71.1 °F 84% 29.89 in 10.0 mi South 4.6 mph - N/A   Clear
2:58 AM 74.8 °F - 71.1 °F 88% 29.90 in 10.0 mi South 2.3 mph - N/A   Clear
3:58 AM 74.3 °F - 70.9 °F 89% 29.90 in 10.0 mi South 3.5 mph - N/A   Clear
4:58 AM 73.2 °F - 70.9 °F 92% 29.91 in 10.0 mi SW 4.6 mph - N/A   Clear
5:58 AM 71.8 °F - 70.9 °F 97% 29.91 in 10.0 mi South 3.5 mph - N/A   Clear
6:58 AM 72.9 °F - 71.1 °F 94% 29.92 in 10.0 mi Variable 2.3 mph - N/A   Partly Cloudy
7:58 AM 74.3 °F - 71.2 °F 90% 29.93 in 10.0 mi Variable 4.6 mph - N/A   Clear
8:58 AM 78.1 °F - 71.2 °F 79% 29.96 in 10.0 mi SW 4.6 mph - N/A   Clear
9:58 AM 81.5 °F 86.3 °F 72.3 °F 74% 29.96 in 10.0 mi WSW 8.1 mph - N/A   Clear
10:58 AM 84.4 °F 90.6 °F 72.9 °F 68% 29.93 in 10.0 mi SW 9.2 mph - N/A   Partly Cloudy
11:58 AM 86.5 °F 92.9 °F 72.0 °F 62% 29.89 in 10.0 mi SW 11.5 mph 19.6 mph N/A   Partly Cloudy
12:58 PM 87.6 °F 94.3 °F 72.0 °F 60% 29.86 in 10.0 mi SSW 15.0 mph 21.9 mph N/A   Partly Cloudy
1:58 PM 88.7 °F 96.2 °F 72.5 °F 59% 29.85 in 10.0 mi SSW 11.5 mph 16.1 mph N/A   Scattered Clouds
2:58 PM 90.5 °F 98.1 °F 72.3 °F 55% 29.85 in 10.0 mi SSW 15.0 mph 19.6 mph N/A   Partly Cloudy
3:58 PM 90.0 °F 96.9 °F 71.8 °F 55% 29.82 in 10.0 mi South 10.4 mph 19.6 mph N/A   Partly Cloudy
4:58 PM 90.1 °F 97.3 °F 72.1 °F 55% 29.81 in 10.0 mi SSW 16.1 mph - N/A   Scattered Clouds
5:58 PM 89.2 °F 96.4 °F 72.1 °F 57% 29.80 in 10.0 mi SSW 10.4 mph - N/A   Partly Cloudy
6:58 PM 88.5 °F 95.3 °F 72.0 °F 58% 29.80 in 10.0 mi South 10.4 mph - N/A   Partly Cloudy
7:58 PM 85.5 °F 91.5 °F 72.0 °F 64% 29.81 in 10.0 mi South 5.8 mph - N/A   Clear
8:58 PM 83.1 °F 88.4 °F 72.0 °F 69% 29.80 in 10.0 mi South 5.8 mph - N/A   Clear
9:58 PM 81.7 °F 86.5 °F 72.1 °F 73% 29.83 in 10.0 mi SSW 4.6 mph - N/A   Scattered Clouds
10:58 PM 79.9 °F - 72.1 °F 77% 29.83 in 10.0 mi South 3.5 mph - N/A   Partly Cloudy
11:58 PM 77.4 °F - 73.6 °F 88% 29.84 in 10.0 mi NE 1.2 mph - N/A   Mostly Cloudy